This is the latest recevied weather packets stored in our database for station/object OM4MO-10. If no packets are shown the sender has not sent any weather packets the latest 10 day(s).
| Time | Temp. | Humidity | Pressure | Rain* | Wind** | Luminosity | Snow |
|---|---|---|---|---|---|---|---|
| 1788271002 | 21.67° C | 79% | 754.7 hPa | - | - | - | - |
| 1788270102 | 21.67° C | 79% | 754.7 hPa | - | - | - | - |
| 1788269202 | 21.67° C | 79% | 754.7 hPa | - | - | - | - |
| 1788268302 | 21.67° C | 79% | 754.7 hPa | - | - | - | - |
| 1788267402 | 20° C | 79% | 1019.7 hPa | - | - | - | - |
| 1788266502 | 21.67° C | 79% | 754.7 hPa | - | - | - | - |
| 1788265614 | 21.67° C | 79% | 754.7 hPa | - | - | - | - |
| 1788264701 | 21.67° C | 79% | 754.7 hPa | - | - | - | - |
| 1788263801 | 20.56° C | 79% | 1020.9 hPa | - | - | - | - |
| 1788262901 | 22.22° C | 79% | 1022.4 hPa | - | - | - | - |
| 1788262000 | 21.67° C | 79% | 754.7 hPa | - | - | - | - |
| 1788261099 | 21.67° C | 79% | 754.7 hPa | - | - | - | - |
| 1788260199 | 23.33° C | 79% | 1023.5 hPa | - | - | - | - |
| 1788259298 | 21.67° C | 79% | 754.7 hPa | - | - | - | - |
| 1788258397 | 21.67° C | 79% | 754.7 hPa | - | - | - | - |
| 1788257496 | 21.11° C | 79% | 1021.1 hPa | - | - | - | - |
| 1788256595 | 21.67° C | 79% | 754.7 hPa | - | - | - | - |
| 1788255694 | 22.78° C | 79% | 1024.4 hPa | - | - | - | - |
| 1788254793 | 21.67° C | 79% | 754.7 hPa | - | - | - | - |
| 1788253892 | 23.33° C | 80% | 1023.4 hPa | - | - | - | - |
| 1788252992 | 22.22° C | 79% | 1023.8 hPa | - | - | - | - |
| 1788252092 | 22.22° C | 79% | 1023.7 hPa | - | - | - | - |
| 1788251192 | 21.67° C | 79% | 1023.9 hPa | - | - | - | - |
| 1788250292 | 21.67° C | 79% | 1022.1 hPa | - | - | - | - |
| 1788249392 | 21.11° C | 79% | 1022 hPa | - | - | - | - |
* Rain since midnight (hover to see other rain measurements)
** Current wind speed in m/s (hover to see current wind gust speed)